Location: ??????
(41.3164°N, 22.6615°E)
Time: 22:03:07
(UTC+00:00)

Cosmos 2369 - Pass Details

Date: 16 October 2021
Orbit: 838 x 857 km, 71.0° (Epoch: 29 November)

Event Time Altitude Azimuth Distance (km) Brightness Sun altitude
Rises 17:00:09 0° 209° (SSW) 3,378 7.2 -14.5°
Reaches altitude 10° 17:02:35 10° 212° (SSW) 2,448 6.5 -15.0°
Maximum altitude 17:08:11 68° 295° (WNW) 904 4.0 -16.0°
Drops below altitude 10° 17:13:51 10° 19° (NNE) 2,475 6.0 -17.1°
Sets 17:16:20 0° 22° (NNE) 3,416 6.7 -17.6°
